Theta_e
341 342 340 339 336 337 336 335 337 337 338 338 339 339 339 338 338 339 338 339 337 337 337 335 333 332 334 336 337 336 336 335 335 334 334 335 335 333 332 333 334 333 332 331 328 327 331 332 332 333 333 334 333 330 330 330 329 327 326 325 323 323
343 343 342 340 337 336 335 336 338 337 338 338 338 337 338 338 338 338 339 338 336 338 339 337 334 332 333 333 333 333 333 332 332 333 334 334 335 333 332 332 333 333 332 332 328 329 332 332 333 333 334 334 334 332 332 331 329 327 326 327 328 327
343 342 342 341 339 335 334 337 338 337 338 338 336 335 336 339 338 337 337 336 336 339 339 338 337 336 336 334 333 332 332 330 329 330 332 334 334 333 332 332 333 333 333 332 331 330 331 332 333 334 334 335 334 332 332 331 330 329 328 328 329 328
342 342 341 341 340 336 334 339 339 338 339 336 334 336 337 338 337 336 337 337 337 339 339 338 338 338 338 336 334 333 332 331 330 331 331 332 333 331 332 332 332 333 333 333 335 334 333 334 334 335 336 334 332 331 331 332 330 331 330 330 331 328
342 342 341 340 340 337 336 339 339 339 339 336 335 337 337 336 336 336 337 337 337 338 338 338 337 337 337 335 334 333 331 331 333 332 330 331 331 330 331 332 332 333 333 335 337 336 335 335 333 336 336 334 333 332 332 332 332 332 332 332 331 330
341 342 341 338 339 338 338 338 338 338 338 337 337 338 337 336 336 336 335 336 337 337 338 336 337 336 335 335 334 332 330 330 333 332 331 332 331 330 331 332 332 333 334 336 337 336 336 335 334 335 334 333 333 332 333 332 333 333 332 332 331 331
340 340 340 337 337 337 337 338 337 337 337 338 338 338 337 337 337 336 336 335 336 337 337 335 335 336 335 336 334 333 332 333 334 332 332 333 332 331 331 332 332 333 334 334 335 335 335 334 333 334 333 333 333 332 333 333 333 333 332 332 331 331
340 339 339 338 337 337 338 338 338 337 337 337 337 338 337 336 337 336 335 335 335 336 336 336 335 335 335 335 334 334 334 334 334 332 333 334 333 332 331 332 332 333 333 333 334 334 335 334 332 333 332 332 332 332 334 333 333 333 332 332 331 331
340 339 338 339 337 338 339 338 338 338 338 338 337 339 338 336 335 336 336 335 336 335 335 335 334 335 335 334 334 334 334 333 333 332 332 333 333 332 331 332 332 332 332 332 333 333 334 333 332 332 331 331 332 332 333 333 332 333 333 332 331 330
340 340 338 339 339 339 339 338 338 339 339 339 338 339 338 335 334 336 337 336 336 336 335 334 334 334 334 333 333 334 334 333 333 333 332 332 332 332 331 332 332 332 332 331 332 333 333 332 331 331 331 331 331 331 333 334 333 334 334 331 330 330
340 339 338 339 339 339 338 338 339 339 339 339 339 339 338 337 336 337 337 336 336 335 334 334 334 335 334 333 334 333 333 333 333 333 332 333 332 332 332 332 333 333 331 330 332 333 332 332 331 330 331 331 331 332 333 334 334 334 334 331 330 330
339 338 338 339 338 337 338 338 339 340 339 338 337 338 338 338 337 337 337 335 335 334 334 335 334 335 333 333 334 333 333 333 333 333 333 334 333 333 332 332 333 332 331 331 334 334 332 332 332 331 331 331 331 331 332 333 334 334 333 332 331 328
340 339 338 340 337 336 337 338 339 339 339 338 337 337 338 338 338 338 337 335 335 334 334 334 334 334 333 333 333 333 333 333 333 334 334 334 334 333 333 333 331 331 332 332 333 334 333 331 332 331 330 331 330 330 333 334 334 334 333 332 331 329
341 339 338 340 339 337 338 338 339 338 338 337 337 337 337 338 338 337 336 335 335 335 335 334 334 333 332 332 333 332 332 334 335 335 335 334 334 334 334 333 332 334 333 332 332 332 332 331 330 331 331 331 330 330 332 333 333 334 333 332 332 331
340 339 337 340 341 338 338 339 339 338 337 336 335 336 336 337 337 336 336 335 335 336 335 335 334 332 330 331 331 331 333 335 335 335 335 335 334 334 335 334 334 334 332 332 332 332 333 331 330 332 331 330 330 329 331 333 333 333 333 332 332 331
340 340 338 340 340 339 339 339 339 338 337 336 334 335 335 336 337 336 336 336 336 336 335 335 334 332 332 332 332 333 335 335 334 334 335 334 334 334 334 334 333 334 333 332 332 333 335 333 331 331 331 331 330 329 332 333 332 331 332 332 331 331
341 340 339 339 339 339 339 338 338 337 336 336 334 335 335 336 336 336 336 335 335 335 334 334 333 332 334 333 334 336 335 333 332 334 334 333 335 334 333 333 332 334 335 332 330 333 334 333 332 331 331 331 330 330 331 332 331 331 331 331 330 330
340 340 340 340 339 338 339 338 338 336 336 336 335 334 334 335 335 335 335 334 332 331 331 331 331 332 335 334 335 336 334 333 333 334 333 333 335 334 333 333 333 334 334 331 332 333 332 332 332 331 331 331 331 331 331 331 331 331 330 330 330 330
339 340 340 341 339 339 339 338 337 336 336 335 334 333 333 334 335 334 335 334 331 329 329 331 331 332 333 333 334 335 335 335 334 334 334 334 335 333 333 333 333 333 333 332 333 333 332 331 331 331 331 332 332 332 331 331 331 331 330 329 329 329
340 340 340 340 339 339 339 336 336 336 335 334 333 333 333 333 334 334 334 335 334 332 331 330 331 332 332 333 334 334 335 335 334 334 334 335 334 332 333 332 332 333 333 332 334 333 331 331 331 331 331 331 331 331 331 331 330 330 330 330 330 330
341 340 340 340 338 338 339 337 337 336 335 334 333 334 335 333 333 333 334 335 334 333 332 331 333 333 333 335 335 335 335 335 334 334 334 335 334 332 332 332 332 333 333 333 334 333 331 331 331 331 331 331 331 330 330 330 330 330 330 330 329 329
340 340 340 339 338 337 338 338 337 336 334 334 334 335 335 334 333 333 334 334 333 332 332 332 333 333 333 335 335 335 334 332 332 334 334 334 333 332 333 334 333 332 334 334 333 332 331 331 332 332 331 331 331 331 331 330 330 330 329 329 329 329
340 339 339 338 338 338 337 337 335 335 335 335 335 334 334 333 333 334 334 335 333 330 330 331 332 332 333 334 333 333 331 328 329 332 333 333 332 332 333 334 333 332 333 333 332 331 331 331 332 332 331 331 331 331 331 331 331 330 329 329 330 329
339 339 338 338 338 338 337 336 335 335 336 335 335 335 334 333 333 334 335 335 333 331 329 330 332 332 332 333 332 331 330 328 329 332 334 333 332 331 332 333 332 332 333 333 333 331 331 332 332 331 331 332 331 331 331 332 331 330 329 330 329 328
339 338 338 338 338 337 337 336 336 336 336 335 334 333 333 333 334 334 333 333 333 332 331 330 332 334 333 331 330 330 330 330 330 332 334 334 332 330 330 331 331 331 332 333 333 333 332 332 332 331 332 332 331 332 332 331 331 330 329 329 328 327
339 338 339 338 337 337 337 336 336 336 335 335 334 333 333 333 333 333 333 332 333 333 332 332 332 334 333 331 331 331 331 331 332 333 334 334 333 330 329 330 331 331 331 332 333 333 332 331 332 332 331 332 332 333 331 330 332 331 329 328 327 327
340 339 338 338 337 337 337 336 335 335 335 335 335 334 333 333 333 333 333 332 333 333 333 333 333 333 333 332 331 331 332 333 333 334 334 334 333 331 330 330 332 331 331 332 332 332 330 330 331 333 332 332 331 331 330 330 331 330 330 330 328 327
339 338 337 337 337 336 337 336 336 335 335 335 334 334 333 332 332 332 332 331 332 333 333 333 334 333 332 332 332 332 333 334 334 334 334 334 333 332 331 330 331 332 332 332 332 331 331 330 331 332 332 332 331 331 330 329 329 329 330 331 329 327
339 337 336 336 337 336 336 336 336 335 335 335 335 334 333 332 331 331 332 332 332 333 333 334 334 333 333 333 332 333 334 334 333 333 333 333 332 333 332 330 331 333 333 332 332 333 332 331 330 331 332 330 330 330 329 330 329 328 330 330 329 328
338 337 336 336 337 337 337 337 336 335 336 335 335 334 333 332 331 331 331 331 332 333 333 333 334 334 334 334 334 333 333 333 333 334 334 332 332 332 331 331 331 333 333 332 332 332 332 331 330 331 331 329 329 329 329 331 330 328 329 329 329 328
338 338 337 336 337 337 337 337 336 336 336 333 333 334 333 332 331 331 331 331 332 333 333 334 334 334 335 334 334 334 334 334 334 334 334 332 331 331 332 331 331 332 333 333 331 331 331 331 330 331 330 329 328 328 329 330 329 328 327 328 329 328
339 338 338 337 337 337 336 336 336 337 336 333 333 335 333 331 332 332 331 332 332 331 332 333 334 334 334 334 334 335 335 334 334 334 334 332 331 331 332 333 332 333 333 332 331 331 330 330 331 332 331 329 328 328 328 328 327 327 326 326 328 327
339 338 338 338 337 337 337 337 337 336 335 333 334 335 333 331 332 332 331 332 332 331 332 333 333 333 332 333 334 335 335 335 334 334 334 333 331 331 332 333 333 332 332 332 331 331 330 330 331 332 331 328 327 328 328 327 327 326 326 326 327 326
339 338 338 338 337 337 337 337 336 334 332 333 333 334 334 334 333 332 331 332 333 333 333 333 332 332 332 332 331 333 334 334 334 334 334 333 332 331 331 332 332 331 331 332 331 330 330 330 330 330 329 328 329 329 328 327 326 326 326 326 327 327
338 338 338 338 337 337 337 337 337 334 332 332 332 333 334 333 333 332 332 333 333 333 332 331 331 331 331 331 331 331 332 332 334 334 334 334 333 332 332 331 331 330 330 331 330 329 329 329 329 330 330 329 330 330 329 327 326 326 326 325 326 326
338 337 338 338 338 338 337 337 337 335 332 330 332 333 333 332 332 332 332 332 332 331 331 330 331 330 330 330 330 331 331 331 332 332 333 333 332 332 332 330 330 331 330 331 331 329 328 329 329 330 330 331 330 330 329 327 327 327 326 325 325 327
338 338 338 338 338 337 337 336 336 335 333 332 332 332 332 332 332 332 331 331 331 331 331 330 330 330 329 329 329 329 329 330 330 331 332 333 331 331 331 330 330 331 330 330 330 329 328 329 330 330 330 331 330 330 329 329 329 329 327 325 325 326
Wind_Speed
21 21 21 20 19 20 20 20 19 19 18 17 16 15 15 14 14 13 13 13 13 14 16 15 13 13 13 14 14 13 12 10 9 8 6 6 7 7 7 6 8 8 9 10 12 15 15 14 14 13 14 14 13 15 15 15 15 15 15 15 14 14
21 22 21 20 20 20 21 19 18 18 17 16 15 14 14 13 13 13 13 12 11 13 15 15 15 14 13 14 14 13 12 11 11 9 7 7 7 7 7 7 7 7 9 10 12 14 13 12 12 11 11 11 11 13 13 13 15 16 15 16 17 16
22 23 22 21 21 21 21 19 18 18 16 15 15 13 13 12 13 13 14 14 13 14 14 14 15 13 12 13 13 12 11 11 10 10 9 8 8 8 7 6 6 7 8 10 11 12 11 11 10 10 9 10 10 10 13 14 16 16 14 14 15 16
22 24 23 21 21 21 22 20 18 18 16 16 15 13 13 12 13 14 15 16 14 14 14 14 13 13 12 13 12 11 10 9 8 10 10 9 9 10 8 7 7 6 8 10 9 7 7 7 6 7 7 8 8 9 12 15 17 17 15 13 13 14
23 24 23 21 21 21 21 19 17 18 16 17 16 14 14 14 15 15 17 17 14 14 15 15 14 14 14 13 12 11 10 9 7 8 9 9 10 12 10 8 7 7 8 9 8 9 8 7 4 3 3 4 6 8 10 13 16 15 13 12 13 13
19 22 19 18 20 21 19 17 17 17 17 16 16 16 16 15 15 16 18 17 15 16 17 16 15 14 14 12 11 11 10 8 6 7 9 9 9 11 11 8 8 7 8 9 9 11 12 9 5 4 5 7 6 8 11 12 13 11 10 12 14 13
12 12 9 12 18 20 18 17 17 19 19 18 17 18 17 15 15 15 16 16 15 17 18 17 16 15 15 13 11 10 9 7 7 8 10 9 8 10 12 9 9 9 8 9 9 10 12 10 7 8 9 7 5 8 11 11 11 9 9 12 14 13
12 7 8 10 15 17 15 15 17 19 20 19 17 16 17 17 16 15 15 15 15 16 18 17 16 15 15 15 13 11 10 9 9 9 10 11 10 10 12 11 11 11 10 11 11 10 11 11 9 9 8 5 5 9 11 12 13 12 10 12 14 13
14 13 13 13 15 14 12 12 15 19 17 16 15 12 15 18 18 15 14 16 16 17 19 18 17 15 15 16 14 13 13 12 11 10 10 10 11 11 11 12 11 12 11 11 13 11 11 11 9 8 7 6 7 8 12 15 15 14 11 12 14 13
14 15 16 17 18 14 12 11 12 17 15 14 14 11 13 16 17 16 15 17 18 18 20 19 19 17 16 16 14 14 13 12 10 10 10 9 11 11 11 12 11 11 10 12 13 10 10 10 10 9 5 5 7 9 14 16 16 15 12 13 14 13
14 14 16 19 19 16 15 14 13 15 15 15 16 13 13 13 15 17 16 18 19 19 20 20 19 17 16 15 13 12 8 8 9 9 10 10 11 11 11 11 9 11 10 10 11 9 9 9 9 10 7 8 7 9 15 18 17 15 13 13 13 12
15 14 19 20 17 16 16 16 15 15 15 18 18 16 15 14 16 18 18 20 20 20 20 19 19 17 15 14 12 10 7 8 10 9 9 9 9 9 10 9 9 11 7 6 11 12 10 9 8 9 8 8 7 9 14 17 18 16 14 14 12 10
16 15 20 19 17 17 18 18 18 17 16 18 19 16 15 17 19 19 20 21 20 20 20 19 18 16 14 12 10 9 9 10 10 10 10 9 9 9 9 9 10 9 4 6 13 14 13 11 9 9 8 8 9 10 14 16 17 17 17 16 13 11
17 15 18 19 18 19 19 20 19 18 15 16 17 16 15 17 18 20 21 22 21 20 20 18 17 16 14 11 10 10 11 10 11 11 10 10 9 8 8 8 8 6 5 9 11 12 12 11 9 8 8 8 12 14 13 15 17 17 16 16 15 14
18 15 18 20 17 16 17 18 18 18 16 14 15 16 18 19 18 20 21 21 21 20 18 15 14 16 15 13 13 12 12 12 11 9 8 8 9 8 6 7 7 4 6 9 10 10 9 9 9 9 7 6 12 16 15 14 15 16 16 14 15 15
17 13 16 19 16 14 15 16 17 19 19 18 17 17 20 21 20 21 22 21 21 20 19 16 15 16 14 14 15 14 14 14 11 8 7 9 10 8 7 8 7 5 6 9 11 11 8 9 10 10 9 7 9 13 16 15 14 16 16 12 12 13
15 12 13 16 16 15 15 16 17 17 19 20 19 17 19 22 22 23 24 24 22 20 20 19 18 16 13 13 13 12 13 13 11 8 8 9 8 6 7 7 7 5 6 9 13 11 9 10 11 12 12 10 9 12 16 16 14 15 14 12 12 11
13 12 11 13 14 14 15 15 15 16 17 17 17 16 19 22 23 25 25 24 23 22 21 20 19 16 13 12 11 11 11 10 10 9 10 9 6 6 6 5 7 6 5 10 12 11 10 10 10 11 11 12 11 13 14 14 13 12 12 13 13 11
13 12 12 13 13 14 14 13 15 15 14 15 16 16 18 20 22 25 24 23 22 22 21 19 18 16 14 11 10 11 10 9 10 10 10 8 4 6 6 4 6 7 6 10 10 10 12 11 10 10 10 11 12 13 13 12 11 12 12 12 13 12
14 13 13 14 14 13 13 14 16 15 13 15 17 16 18 19 21 23 22 20 20 21 20 19 17 15 14 13 12 12 9 9 11 11 10 8 5 6 8 7 7 8 8 10 10 10 13 13 13 12 10 12 12 11 11 10 9 11 12 12 12 12
16 15 14 14 14 13 13 14 15 15 14 15 16 16 17 17 20 22 20 18 20 20 19 18 17 16 15 15 14 13 12 12 12 12 11 8 5 6 9 9 7 8 8 10 11 11 14 16 16 14 11 11 11 10 9 10 10 9 9 10 11 11
19 16 15 15 15 14 14 13 14 15 14 14 15 15 17 18 20 22 19 18 21 21 20 19 18 18 16 14 15 15 14 13 11 11 11 8 6 7 11 10 9 10 10 10 12 12 14 15 13 12 12 10 9 8 8 9 8 8 8 9 9 8
20 17 16 15 15 15 13 12 12 13 13 12 13 14 16 18 20 20 19 20 21 21 20 19 18 17 15 13 15 17 15 13 11 10 9 8 9 8 13 10 11 12 12 11 11 12 15 12 11 14 13 7 4 4 4 5 5 7 9 8 7 6
20 18 17 16 15 15 14 12 11 12 12 11 12 13 14 16 18 18 19 20 20 20 18 18 17 14 13 13 15 16 14 12 11 10 7 6 8 9 12 9 10 12 14 14 11 12 14 11 13 14 8 4 4 4 2 3 5 7 9 8 7 7
21 19 18 17 16 16 16 15 14 12 12 11 11 13 14 15 16 16 19 21 21 20 17 16 15 13 13 13 13 13 11 10 11 9 6 5 8 11 10 10 12 13 15 15 13 12 12 13 14 10 5 4 4 2 2 6 6 5 6 6 8 9
22 21 19 18 17 18 18 17 17 15 13 13 12 11 13 14 16 16 19 21 20 19 17 16 15 14 14 12 12 12 11 10 10 8 7 6 7 11 12 11 12 14 15 15 15 14 14 16 13 7 6 5 2 2 7 10 6 3 3 6 12 14
21 22 20 20 19 19 19 18 18 16 14 14 13 12 12 14 16 17 18 18 17 16 15 14 13 13 13 11 11 12 11 9 8 7 8 8 6 8 12 12 11 13 15 15 16 16 16 18 13 6 6 4 3 7 12 12 6 4 4 5 11 15
21 22 21 21 20 19 19 19 17 16 15 14 13 13 13 14 15 15 14 13 13 13 12 10 10 11 11 9 10 12 11 10 11 9 8 8 6 7 11 13 12 12 14 16 17 16 17 19 15 9 7 5 6 10 12 11 9 9 5 4 7 9
21 21 21 21 21 19 18 18 18 17 16 14 13 13 14 14 13 12 12 11 11 12 11 10 10 11 10 8 9 10 10 10 11 9 7 8 7 8 10 12 13 13 14 17 17 15 17 19 17 13 9 8 10 12 11 9 10 11 7 5 5 5
20 20 21 21 21 19 18 18 17 18 17 15 15 15 14 14 13 13 12 11 12 12 12 11 12 11 10 9 8 8 8 9 9 8 8 8 8 9 10 12 13 13 13 15 16 17 18 19 18 15 12 11 12 12 10 7 8 11 8 4 4 6
19 19 22 22 21 20 18 18 17 17 17 17 18 16 15 14 14 15 13 10 8 8 9 10 10 10 9 9 9 8 8 8 9 9 8 7 8 9 10 12 14 14 13 14 15 16 16 17 17 15 12 11 13 13 9 6 8 11 8 4 4 6
19 20 22 22 21 19 18 18 17 16 17 18 18 17 18 17 16 15 14 10 7 7 9 10 9 9 8 8 8 8 8 8 8 8 8 7 7 9 10 13 15 15 15 15 15 16 15 16 17 14 11 10 11 14 12 9 11 12 11 9 6 6
20 21 22 22 22 20 18 18 17 17 18 19 20 18 19 21 18 14 14 13 14 14 13 12 11 10 9 8 7 7 7 8 8 8 7 6 7 9 11 12 14 15 15 15 15 17 17 18 17 15 13 11 10 12 13 11 11 12 13 12 8 6
21 22 21 22 22 20 19 18 17 18 19 20 21 19 19 22 20 17 17 16 16 16 14 13 11 10 9 8 6 6 5 5 6 6 6 6 7 9 10 11 12 14 16 14 13 15 17 18 19 16 15 13 11 11 13 12 12 12 14 14 10 8
22 22 22 23 23 21 20 18 16 18 18 17 19 19 17 18 18 18 18 16 15 14 13 12 11 9 9 8 7 7 6 5 5 5 6 6 6 7 8 9 11 13 15 13 12 14 15 17 18 16 15 15 13 11 11 13 14 13 15 17 14 9
21 22 23 25 24 23 21 19 17 16 17 16 17 17 15 15 15 15 16 14 14 14 13 12 12 10 9 8 8 7 7 8 5 4 6 6 6 8 9 10 11 12 14 13 12 13 17 17 16 16 16 15 14 11 11 13 14 13 15 19 15 10
21 19 20 24 26 26 23 20 18 17 16 15 15 15 15 15 15 15 15 14 13 13 13 12 11 10 9 8 8 7 7 9 7 5 5 5 6 7 8 10 11 12 12 12 11 11 16 17 15 15 16 15 15 14 12 12 13 14 17 19 14 10
Wind_Direction
164 164 162 161 166 168 169 168 166 168 166 166 167 167 167 164 167 169 171 171 171 172 173 174 172 175 180 182 188 195 198 202 201 202 197 170 162 162 156 140 131 142 143 125 115 116 118 116 114 109 100 93 88 87 92 96 96 97 97 95 94 95
167 164 161 159 161 164 166 164 165 167 165 167 168 168 167 166 170 172 172 171 171 174 172 169 168 168 173 180 187 194 198 205 208 205 197 176 170 175 167 145 133 144 149 137 124 122 122 120 117 111 103 96 88 97 110 108 105 106 102 94 88 90
169 165 161 158 158 163 163 163 165 165 164 166 167 167 165 165 170 172 170 170 171 172 171 167 165 166 168 173 179 185 191 202 205 199 195 184 179 182 173 154 145 145 153 149 133 127 126 120 111 101 90 82 80 102 120 118 114 111 107 99 90 92
169 165 161 157 156 162 162 162 165 164 163 165 165 162 161 164 169 171 172 174 175 170 169 165 161 161 160 162 166 173 182 186 189 190 190 188 182 180 177 166 162 161 163 156 144 144 143 134 114 95 78 77 95 115 120 115 112 109 110 108 99 95
171 166 164 159 153 157 160 160 163 161 162 165 163 158 161 167 171 175 178 180 179 173 169 168 167 163 157 156 161 169 178 177 183 193 189 188 182 178 177 175 181 176 162 161 167 177 182 193 180 124 84 108 131 129 117 111 111 114 115 111 107 103
170 168 165 157 148 153 159 160 162 160 162 166 166 164 164 169 176 180 181 182 180 172 169 170 172 163 154 157 164 170 175 170 175 194 186 181 184 184 179 181 199 185 163 176 190 189 189 197 188 169 148 133 141 134 121 116 114 116 117 114 113 109
160 162 139 127 139 155 163 156 155 160 165 170 169 167 169 174 181 181 176 181 182 174 171 172 172 164 156 159 166 170 174 168 171 188 183 178 192 193 183 185 200 194 182 192 202 197 193 200 189 168 159 143 149 143 128 122 118 113 113 119 119 114
151 130 92 112 141 155 161 154 151 160 168 172 173 169 173 183 186 182 178 184 187 179 172 170 171 170 163 163 168 174 181 184 186 193 191 191 197 195 192 192 199 201 196 203 210 206 200 206 200 185 180 157 151 151 134 127 125 118 114 120 123 119
149 125 112 137 154 155 160 160 154 161 167 170 174 165 168 185 188 183 181 184 187 180 173 170 172 175 173 172 174 180 183 187 196 199 196 200 196 194 202 199 205 207 198 210 217 212 210 205 193 192 188 158 166 173 141 128 128 122 117 119 122 121
159 149 135 145 157 166 167 164 162 166 166 164 171 160 161 184 192 189 180 177 183 183 178 174 174 176 177 178 179 184 181 181 195 197 192 201 197 195 204 201 208 208 201 218 217 205 204 198 184 174 176 191 197 178 147 132 125 125 125 124 123 122
169 167 147 143 153 172 171 166 171 169 167 166 170 165 166 185 193 193 182 175 183 186 180 173 174 177 178 180 179 179 177 182 194 196 196 203 202 195 198 203 205 204 209 214 200 187 187 186 185 178 195 220 189 139 141 138 126 127 128 118 118 120
171 157 139 139 150 173 172 169 176 172 167 170 176 173 172 183 187 188 181 176 182 184 179 172 177 180 178 181 173 169 181 196 198 198 202 201 202 194 194 205 203 206 226 206 177 169 174 180 192 194 196 196 160 122 133 136 129 127 123 115 113 117
174 152 135 141 158 172 161 157 173 177 171 169 178 177 172 179 183 187 183 178 179 180 180 178 181 176 172 175 165 173 191 199 201 197 195 192 195 198 203 210 202 209 216 172 177 173 173 181 191 189 167 140 129 134 133 130 130 129 127 124 120 118
177 161 145 151 167 175 156 149 163 171 168 166 174 174 169 176 180 184 184 181 179 180 182 184 183 172 169 175 169 186 198 200 203 196 189 185 186 196 215 216 202 214 179 153 171 180 179 184 178 154 141 113 103 120 129 126 130 132 131 131 132 133
180 171 158 158 168 179 169 158 159 159 161 163 171 170 163 172 177 178 178 178 179 180 181 184 182 173 176 182 179 192 200 200 201 190 183 184 186 193 212 213 196 192 174 160 163 166 165 173 162 131 121 84 90 114 127 124 129 135 132 132 140 141
178 170 158 162 167 175 177 171 163 159 158 162 174 172 163 170 174 175 176 175 176 177 179 183 180 177 184 187 185 193 197 197 197 187 188 190 191 202 210 201 187 154 147 158 165 157 144 148 141 125 112 79 91 121 130 130 133 135 133 136 143 143
177 170 154 160 166 168 174 172 165 154 151 160 174 175 169 172 171 175 180 177 178 177 179 184 183 185 193 192 189 192 195 198 194 188 194 188 188 222 230 198 175 156 138 151 160 148 133 139 126 114 108 101 115 126 129 135 135 132 134 138 142 148
178 171 151 154 162 164 163 163 162 151 148 157 163 169 175 175 170 176 179 176 179 180 183 187 186 193 202 198 191 186 191 200 197 199 200 189 195 223 229 210 178 170 147 143 145 128 129 142 122 111 113 114 124 125 126 134 134 132 136 136 139 149
178 168 154 156 160 161 160 159 159 152 149 153 153 166 179 178 174 176 175 172 175 180 188 190 186 194 201 205 202 187 188 198 199 208 205 195 211 213 211 217 190 185 163 135 130 130 141 145 130 128 128 120 123 125 128 136 137 131 131 134 135 138
173 170 162 159 159 160 164 161 157 155 152 152 155 166 173 177 181 178 174 172 173 178 186 188 187 191 199 208 208 194 190 198 202 207 204 200 199 200 213 215 191 186 166 136 137 144 147 149 137 127 120 116 121 125 127 133 137 132 131 133 132 133
169 171 163 164 169 169 170 164 161 162 159 156 158 160 159 169 183 182 179 176 174 178 182 186 187 189 196 205 206 199 194 198 207 204 195 194 183 184 209 207 183 173 147 140 154 148 149 152 135 119 112 109 110 114 124 128 135 141 135 126 126 134
170 172 166 169 176 178 177 170 168 164 159 158 158 158 157 166 179 180 181 178 178 182 183 186 190 192 198 206 209 206 204 207 212 208 196 179 159 186 212 197 166 158 138 155 175 156 152 150 133 131 129 112 99 103 117 124 131 143 137 127 125 130
173 175 171 171 175 179 178 173 171 161 154 155 152 157 163 169 173 172 175 177 179 184 184 185 189 193 199 208 211 209 213 218 213 212 209 177 152 188 219 195 159 157 149 169 187 164 160 153 137 143 136 122 129 117 116 132 142 154 150 138 130 140
172 174 171 172 172 169 165 159 156 152 153 152 148 153 156 164 169 169 172 174 176 182 185 187 186 191 203 207 209 210 216 217 207 210 215 188 166 189 218 200 170 169 162 170 180 163 167 163 143 142 131 114 146 138 139 168 158 165 167 148 146 178
167 170 167 169 169 159 153 146 142 145 153 147 142 150 153 159 169 173 176 175 176 181 187 191 188 192 206 209 209 211 215 208 201 204 206 202 183 175 188 197 187 178 173 177 171 159 166 163 148 142 130 121 143 151 150 156 146 154 173 152 151 168
164 168 166 167 166 157 152 150 147 151 157 151 146 159 166 167 172 176 178 178 180 183 188 194 194 198 207 211 208 208 210 204 197 202 203 204 192 168 166 190 193 176 181 188 169 159 165 162 155 144 135 137 151 134 144 158 156 135 150 145 153 157
162 164 165 165 164 160 157 158 157 159 165 162 158 167 173 173 174 174 175 179 183 188 194 198 198 204 212 215 213 209 206 201 200 208 208 202 196 171 164 181 192 175 177 184 169 160 165 168 168 151 138 136 104 125 149 160 152 133 134 134 151 153
160 161 162 163 165 167 163 160 161 162 164 164 162 164 167 172 173 172 176 179 181 187 193 198 201 207 213 216 214 212 208 204 204 203 206 205 192 173 166 169 179 169 160 168 173 167 164 172 175 161 152 145 122 129 145 148 141 147 143 118 143 140
158 159 161 161 166 172 169 163 164 161 158 156 152 153 163 170 172 177 179 175 177 184 188 197 210 214 217 213 205 206 206 208 205 196 197 200 186 178 171 163 169 165 153 161 172 173 170 173 174 170 168 155 139 135 135 134 135 141 135 128 149 134
159 161 162 164 168 172 170 166 165 161 158 154 143 142 157 166 173 179 175 176 180 181 186 198 207 209 211 205 199 200 200 204 203 198 199 192 178 180 172 162 165 163 160 165 170 177 179 174 171 174 175 162 151 146 134 120 131 136 128 119 139 141
164 165 163 165 168 170 170 167 165 162 161 160 148 142 150 161 178 177 167 178 179 162 181 202 205 207 206 197 195 197 195 201 203 201 204 191 175 185 176 162 162 158 160 167 172 182 184 175 171 172 174 167 161 165 159 145 153 150 138 127 133 142
169 166 164 166 167 167 168 164 162 161 159 160 152 146 155 168 184 178 161 168 173 170 191 199 197 202 201 192 191 194 190 194 201 201 206 194 175 185 175 157 157 157 160 165 171 181 183 179 173 165 169 171 165 175 177 164 165 164 158 160 163 160
169 166 164 165 166 164 165 163 164 165 162 162 157 153 161 169 175 169 159 167 178 184 187 182 183 187 186 187 185 189 189 187 195 199 201 192 173 178 173 159 157 158 162 166 168 174 175 176 175 171 175 172 162 174 177 173 176 174 173 177 192 196
168 167 165 164 164 161 163 163 166 170 165 163 161 156 157 161 162 162 162 169 175 174 171 169 174 175 172 175 171 176 183 181 191 192 189 187 175 174 168 161 160 157 161 167 166 170 174 174 176 179 179 167 159 170 173 177 182 179 184 188 200 216
169 169 166 163 162 160 163 162 162 167 161 158 159 153 152 155 157 157 158 164 165 162 164 164 164 163 162 162 159 161 163 166 183 179 177 183 174 166 160 165 167 158 159 170 171 164 166 174 175 172 174 167 164 171 169 173 180 185 193 188 191 211
172 174 168 163 161 158 161 162 162 164 159 157 155 148 151 154 150 148 151 157 159 157 159 157 154 157 160 160 159 159 160 162 165 163 169 173 162 155 156 162 166 156 155 169 178 163 159 173 177 168 170 169 166 172 174 173 175 184 193 186 191 215
174 178 171 165 163 158 158 160 161 161 159 161 159 152 150 150 146 145 149 152 151 149 148 148 151 156 159 160 160 163 160 152 144 146 154 149 143 148 153 157 159 159 156 159 173 175 168 176 182 179 180 176 169 171 175 177 177 183 188 185 189 206